Weather History for Vancouver, BC

Change the Weather History Date:

Monday, November 19, 2012

  Actual Average Record
Temperature  
Mean Temperature 46 °F -  
Max Temperature 50 °F 45 °F 55 °F (2001)
Min Temperature 42 °F 34 °F 26 °F (1996)
Degree Days  
Heating Degree Days 19    
Moisture  
Dew Point 44 °F    
Average Humidity 90    
Maximum Humidity 100    
Minimum Humidity 79    
Precipitation  
Precipitation 0.39 in 0.23 in - ()
Sea Level Pressure  
Sea Level Pressure 29.47 in    
Wind  
Wind Speed 14 mph ()    
Max Wind Speed 30 mph    
Max Gust Speed 36 mph    
Visibility 10.7 miles    
Events Rain    
Averages and records for this station are not official NWS values.
T = Trace of Precipitation, MM = Missing Value Source: Averaged Metar Reports

Daily Weather History Graph

Daily Weather History Graph

Search for Another Location

Airport:

Trip Planner

Search our weather history database for the weather conditions in past years. The results will help you decide how hot, cold, wet, or windy it might be!

Date:

Astronomy

Nov. 19, 2012 Rise Set
Actual Time 7:29 AM PST 4:26 PM PST
Civil Twilight 6:54 AM PST 5:01 PM PST
Nautical Twilight 6:15 AM PST 5:40 PM PST
Astronomical Twilight 5:37 AM PST 6:18 PM PST
Moon 12:23 PM PST (11/19) 11:14 PM PST (11/19)
Length of Visible Light 10h 06m
Length of Day
8h 56m
Waxing Crescent, 42% of the Moon is Illuminated
Nov 19
Waxing Crescent
Nov 20
First Quarter
Nov 28
Full
Dec 6
Last Quarter
Dec 13
New

Hourly Weather History & Observations

Time (PST) Temp. Windchill Dew Point Humidity Pressure Visibility Wind Dir Wind Speed Gust Speed Precip Events Conditions
12:00 AM 50.0 °F - 44.6 °F 82% 29.48 in 12.0 mi SE 19.6 mph 29.9 mph N/A   Overcast
12:53 AM 50.0 °F - - N/A% - 12.0 mi SSE 26.5 mph 35.7 mph N/A Rain Light Rain Showers
1:00 AM 50.0 °F - 44.6 °F 82% 29.48 in 12.0 mi SSE 29.9 mph 35.7 mph N/A Rain Light Rain Showers
2:00 AM 50.0 °F - 44.6 °F 82% 29.50 in 12.0 mi SSE 19.6 mph - N/A Rain Light Rain Showers
3:00 AM 48.2 °F - 44.6 °F 87% 29.50 in 12.0 mi SE 15.0 mph - N/A Rain Light Rain Showers
3:02 AM 48.2 °F - - N/A% - 12.0 mi SE 18.4 mph - N/A   Mostly Cloudy
4:00 AM 49 °F - 44 °F 79% 29.49 in 12 mi SE 18.4 mph - - Rain Light Rain Showers
4:00 AM 50.0 °F - 44.6 °F 82% 29.49 in 12.0 mi SE 17.3 mph 25.3 mph N/A   Mostly Cloudy
5:00 AM 48.2 °F - 44.6 °F 87% 29.49 in 12.0 mi ESE 15.0 mph - N/A Rain Light Rain Showers
6:00 AM 48.2 °F - 46.4 °F 93% 29.47 in 12.0 mi ESE 15.0 mph - N/A Rain Light Rain Showers
7:00 AM 48.2 °F - 46.4 °F 93% 29.44 in 12.0 mi ESE 15.0 mph 20.7 mph N/A Rain Light Rain Showers
7:47 AM 46.4 °F 40.4 °F - N/A% - 8.0 mi East 13.8 mph - N/A Rain Light Rain Showers
8:00 AM 46.4 °F 40.7 °F 44.6 °F 93% 29.46 in 8.0 mi East 12.7 mph - N/A Rain Light Rain Showers
9:00 AM 48.2 °F - 46.4 °F 93% 29.46 in 3.0 mi SE 20.7 mph - N/A Rain Rain
9:09 AM 48.2 °F - - N/A% - 4.0 mi SE 18.4 mph - N/A Rain Rain
10:00 AM 46 °F - 45 °F 93% 29.46 in 4 mi East 12.7 mph - - Rain Rain
10:00 AM 46.4 °F 40.7 °F 44.6 °F 93% 29.46 in 4.0 mi East 12.7 mph - N/A Rain Rain
10:25 AM 46.4 °F 40.1 °F - N/A% - 6.0 mi East 15.0 mph 20.7 mph N/A Rain Rain
11:00 AM 46.4 °F 40.1 °F 44.6 °F 93% 29.42 in 8.0 mi East 15.0 mph 20.7 mph N/A Rain Light Rain
12:00 PM 46.4 °F 40.7 °F 44.6 °F 93% 29.36 in 8.0 mi East 12.7 mph - N/A Rain Light Rain
1:00 PM 46.4 °F 40.7 °F 44.6 °F 93% 29.35 in 8.0 mi East 12.7 mph - N/A Rain Light Rain
1:36 PM 46.4 °F 41.1 °F - N/A% - 12.0 mi East 11.5 mph - N/A   Overcast
2:00 PM 46.4 °F 41.9 °F 44.6 °F 93% 29.34 in 15.0 mi ESE 9.2 mph - N/A   Overcast
2:21 PM 46.4 °F 42.9 °F - N/A% - 12.0 mi SE 6.9 mph - N/A Rain Light Rain
3:00 PM 46.4 °F 41.1 °F 44.6 °F 93% 29.37 in 12.0 mi East 11.5 mph - N/A Rain Light Rain
3:26 PM 46.4 °F 41.1 °F - N/A% - 12.0 mi East 11.5 mph - N/A   Overcast
4:00 PM 45 °F - 43 °F 88% 29.39 in 12 mi East 6.9 mph - - Rain Light Rain
4:00 PM 44.6 °F 40.7 °F 42.8 °F 93% 29.39 in 12.0 mi East 6.9 mph - N/A   Mostly Cloudy
4:33 PM 44.6 °F 42.2 °F - N/A% - 12.0 mi ESE 4.6 mph - N/A   Mostly Cloudy
5:00 PM 46.4 °F 42.4 °F 44.6 °F 93% 29.42 in 10.0 mi NE 8.1 mph - N/A   Overcast
5:36 PM 46.4 °F 44.3 °F - N/A% - 12.0 mi East 4.6 mph - N/A   Overcast
6:00 PM 46.4 °F 44.3 °F 44.6 °F 93% 29.45 in 12.0 mi East 4.6 mph - N/A Rain Light Rain
7:00 PM 46.4 °F 42.4 °F 44.6 °F 93% 29.47 in 8.0 mi East 8.1 mph - N/A Rain Light Rain
7:31 PM 46.4 °F 42.4 °F - N/A% - 12.0 mi ESE 8.1 mph - N/A   Overcast
7:41 PM 46.4 °F 44.3 °F - N/A% - 12.0 mi SE 4.6 mph - N/A   Overcast
8:00 PM 46.4 °F - 44.6 °F 93% 29.52 in 12.0 mi SE 2.3 mph - N/A   Overcast
9:00 PM 42.8 °F 38.6 °F 41.0 °F 93% 29.56 in 12.0 mi East 6.9 mph - N/A   Scattered Clouds
10:00 PM 44 °F - 42 °F 91% 29.60 in 15 mi East 8.1 mph - -   Partly Cloudy
10:00 PM 42.8 °F 38.0 °F 42.8 °F 100% 29.60 in 15.0 mi East 8.1 mph - N/A   Mostly Cloudy
11:00 PM 42.8 °F 38.0 °F 39.2 °F 87% 29.63 in 15.0 mi East 8.1 mph - N/A   Mostly Cloudy